Location: Barrio Las Umbrías
(40.4173°N, 4.8685°W)
Time: 12:20:08
(UTC+00:00)

Cosmos 2346 Rocket - Pass Details

Date: 17 August 2022
Orbit: 935 x 981 km, 82.9° (Epoch: 27 September)

Event Time Altitude Azimuth Distance (km) Brightness Sun altitude
Exits shadow 22:40:07 78° 309° (NW) 1,007 4.5 -31.3°
Drops below altitude 10° 22:46:10 10° 5° (N) 2,736 7.5 -31.8°
Sets 22:48:41 0° 7° (N) 3,683 8.3 -32.1°
